THA803 VTBD-VTSM

Flight info

Callsign THA803
Flight time N/A
Altitude 39000
Route KASNI3C KASNI M757 ASEKU/N0482F410 M757 MABKO W33 UPNEP
Aircraft MD11/H-SDE1E2E3FGHIJ2J3J4J5M1RWXY/LB1D1

Departure

Time N/A
Airport Don Mueang International Airport (VTBD)

Arrival

Time 2026-04-21 05:43
Airport Samui International Airport (VTSM)
Time Latitude Longitude Altitude Speed Heading
2026-04-21 05:04 13.06446 100.67567 24742 ft 468 kts 181°
2026-04-21 05:04 13.03159 100.67518 25386 ft 472 kts 180°
2026-04-21 05:04 12.99890 100.67504 26023 ft 477 kts 180°
2026-04-21 05:05 12.96511 100.67474 26659 ft 481 kts 180°
2026-04-21 05:05 12.93194 100.67425 27282 ft 486 kts 180°
2026-04-21 05:05 12.89779 100.67358 27909 ft 490 kts 180°
2026-04-21 05:05 12.86352 100.67280 28520 ft 495 kts 180°
2026-04-21 05:06 12.82895 100.67192 29100 ft 499 kts 180°
2026-04-21 05:06 12.79398 100.67098 29693 ft 504 kts 180°
2026-04-21 05:06 12.75874 100.67001 30174 ft 508 kts 181°
2026-04-21 05:06 12.72367 100.66908 30708 ft 510 kts 181°
2026-04-21 05:07 12.68811 100.66814 31279 ft 510 kts 181°
2026-04-21 05:07 12.65258 100.66721 31911 ft 508 kts 181°
2026-04-21 05:07 12.61772 100.66629 32513 ft 505 kts 181°
2026-04-21 05:07 12.58255 100.66537 33094 ft 505 kts 181°
2026-04-21 05:08 12.54749 100.66445 33692 ft 503 kts 181°
2026-04-21 05:08 12.51252 100.66353 34228 ft 501 kts 181°
2026-04-21 05:08 12.47767 100.66260 34721 ft 499 kts 181°
2026-04-21 05:08 12.44299 100.66168 35185 ft 497 kts 181°
2026-04-21 05:09 12.40842 100.66079 35654 ft 496 kts 181°
2026-04-21 05:09 12.37402 100.65992 36124 ft 494 kts 181°
2026-04-21 05:09 12.33956 100.65901 36566 ft 493 kts 181°
2026-04-21 05:09 12.31686 100.65842 36873 ft 492 kts 181°
2026-04-21 05:10 12.27159 100.65724 37462 ft 489 kts 181°
2026-04-21 05:10 12.23748 100.65637 37857 ft 488 kts 182°
2026-04-21 05:10 12.21501 100.65576 38121 ft 487 kts 182°
2026-04-21 05:10 12.18111 100.65488 38521 ft 486 kts 182°
2026-04-21 05:11 12.14728 100.65402 38786 ft 486 kts 182°
2026-04-21 05:11 12.11335 100.65314 38864 ft 485 kts 182°
2026-04-21 05:11 12.04626 100.65142 38883 ft 484 kts 182°
2026-04-21 05:12 11.97886 100.64970 38889 ft 484 kts 182°
2026-04-21 05:12 11.91132 100.64800 38887 ft 484 kts 182°
2026-04-21 05:13 11.84387 100.64629 38885 ft 484 kts 182°
2026-04-21 05:13 11.77680 100.64460 38884 ft 484 kts 181°
2026-04-21 05:14 11.70941 100.64289 38894 ft 484 kts 181°
2026-04-21 05:14 11.64215 100.64119 38889 ft 484 kts 181°
2026-04-21 05:15 11.57566 100.63952 38887 ft 484 kts 181°
2026-04-21 05:15 11.50853 100.63782 38892 ft 484 kts 181°
2026-04-21 05:16 11.44224 100.63615 38895 ft 484 kts 181°
2026-04-21 05:16 11.37505 100.63445 38889 ft 484 kts 181°
2026-04-21 05:17 11.30757 100.63275 38887 ft 484 kts 181°
2026-04-21 05:17 11.24025 100.63106 38731 ft 484 kts 181°
2026-04-21 05:18 11.20657 100.63021 38515 ft 483 kts 181°
2026-04-21 05:18 11.17288 100.62936 38027 ft 485 kts 181°
2026-04-21 05:18 11.13951 100.62850 37456 ft 485 kts 181°
2026-04-21 05:18 11.10570 100.62761 36914 ft 486 kts 181°
2026-04-21 05:19 11.07177 100.62679 36371 ft 487 kts 181°
2026-04-21 05:19 11.03787 100.62597 35829 ft 489 kts 181°
2026-04-21 05:19 11.00385 100.62512 35280 ft 490 kts 181°
2026-04-21 05:19 10.96967 100.62425 34758 ft 491 kts 180°
2026-04-21 05:20 10.93542 100.62338 34210 ft 493 kts 180°
2026-04-21 05:20 10.90148 100.62252 33586 ft 494 kts 180°
2026-04-21 05:20 10.86657 100.62167 32944 ft 497 kts 180°
2026-04-21 05:20 10.83248 100.62082 32356 ft 498 kts 180°
2026-04-21 05:21 10.79763 100.61991 31754 ft 499 kts 180°
2026-04-21 05:21 10.76292 100.61895 30372 ft 497 kts 180°
2026-04-21 05:21 10.72822 100.61805 28506 ft 501 kts 180°
2026-04-21 05:21 10.69436 100.61727 27522 ft 491 kts 180°
2026-04-21 05:22 10.66179 100.61649 26521 ft 484 kts 180°
2026-04-21 05:22 10.62827 100.61566 25522 ft 477 kts 180°
2026-04-21 05:22 10.59526 100.61478 24585 ft 469 kts 180°
2026-04-21 05:22 10.56311 100.61397 23822 ft 463 kts 180°
2026-04-21 05:23 10.53091 100.61313 22992 ft 459 kts 180°
2026-04-21 05:23 10.49921 100.61237 22109 ft 452 kts 180°
2026-04-21 05:23 10.46799 100.61163 21295 ft 446 kts 180°
2026-04-21 05:23 10.43716 100.61086 20588 ft 438 kts 180°
2026-04-21 05:24 10.40703 100.61008 19940 ft 434 kts 180°
2026-04-21 05:24 10.37703 100.60937 19321 ft 430 kts 180°
2026-04-21 05:24 10.34701 100.60865 18721 ft 425 kts 180°
2026-04-21 05:24 10.31758 100.60800 18106 ft 421 kts 180°
2026-04-21 05:25 10.28847 100.60731 17433 ft 416 kts 180°
2026-04-21 05:25 10.26001 100.60657 16831 ft 412 kts 180°
2026-04-21 05:25 10.23144 100.60586 16231 ft 408 kts 180°
2026-04-21 05:25 10.20317 100.60516 15690 ft 404 kts 180°
2026-04-21 05:26 10.17515 100.60443 15126 ft 400 kts 180°
2026-04-21 05:26 10.14725 100.60372 14571 ft 396 kts 180°
2026-04-21 05:26 10.12023 100.60307 14043 ft 393 kts 180°
2026-04-21 05:26 10.09303 100.60241 13492 ft 389 kts 180°
2026-04-21 05:27 10.06607 100.60182 12903 ft 386 kts 180°
2026-04-21 05:27 10.03928 100.60116 12365 ft 383 kts 180°
2026-04-21 05:27 10.01267 100.60051 11846 ft 380 kts 180°
2026-04-21 05:27 9.98655 100.59982 11375 ft 379 kts 180°
2026-04-21 05:28 9.96030 100.59922 11087 ft 376 kts 180°
2026-04-21 05:28 9.93464 100.59855 10953 ft 357 kts 180°
2026-04-21 05:28 9.91054 100.59796 10841 ft 335 kts 180°
2026-04-21 05:28 9.88800 100.59738 10727 ft 313 kts 181°
2026-04-21 05:29 9.86670 100.59684 10606 ft 300 kts 180°
2026-04-21 05:29 9.84601 100.59632 10489 ft 297 kts 180°
2026-04-21 05:29 9.82526 100.59576 10247 ft 298 kts 182°
2026-04-21 05:29 9.80490 100.59195 9771 ft 299 kts 201°
2026-04-21 05:30 9.78742 100.58101 9230 ft 300 kts 220°
2026-04-21 05:30 9.77227 100.56639 8720 ft 300 kts 225°
2026-04-21 05:30 9.75788 100.55108 8205 ft 298 kts 226°
2026-04-21 05:30 9.74383 100.53596 7721 ft 291 kts 226°
2026-04-21 05:31 9.73003 100.52118 7285 ft 285 kts 226°
2026-04-21 05:31 9.71635 100.50663 6975 ft 282 kts 226°
2026-04-21 05:31 9.70169 100.49383 6856 ft 282 kts 215°
2026-04-21 05:31 9.68525 100.48261 6816 ft 283 kts 212°
2026-04-21 05:32 9.66860 100.47198 6767 ft 281 kts 211°
2026-04-21 05:32 9.65218 100.46161 6705 ft 282 kts 211°
2026-04-21 05:32 9.63555 100.45115 6653 ft 281 kts 211°
2026-04-21 05:32 9.61890 100.44062 6594 ft 281 kts 211°
2026-04-21 05:33 9.60227 100.43016 6538 ft 281 kts 211°
2026-04-21 05:33 9.58554 100.41960 6284 ft 283 kts 211°
2026-04-21 05:33 9.56912 100.40917 5901 ft 280 kts 211°
2026-04-21 05:33 9.55266 100.39884 5521 ft 277 kts 211°
2026-04-21 05:34 9.53635 100.38860 5150 ft 274 kts 211°
2026-04-21 05:34 9.52077 100.37769 4970 ft 271 kts 220°
2026-04-21 05:34 9.50705 100.36449 4915 ft 270 kts 224°
2026-04-21 05:34 9.49385 100.35070 4858 ft 273 kts 226°
2026-04-21 05:35 9.48084 100.33664 4800 ft 273 kts 226°
2026-04-21 05:35 9.46791 100.32280 4735 ft 272 kts 226°
2026-04-21 05:35 9.45485 100.30877 4689 ft 272 kts 226°
2026-04-21 05:35 9.44186 100.29483 4633 ft 273 kts 227°
2026-04-21 05:36 9.42883 100.28089 4560 ft 272 kts 226°
2026-04-21 05:36 9.41582 100.26694 4490 ft 271 kts 226°
2026-04-21 05:36 9.40293 100.25311 4437 ft 270 kts 226°
2026-04-21 05:36 9.38996 100.23920 4301 ft 271 kts 225°
2026-04-21 05:37 9.37701 100.22537 4105 ft 269 kts 225°
2026-04-21 05:37 9.36419 100.21167 4013 ft 266 kts 227°
2026-04-21 05:37 9.35399 100.19621 3726 ft 265 kts 249°
2026-04-21 05:37 9.35006 100.17836 3597 ft 265 kts 262°
2026-04-21 05:38 9.34799 100.15973 3424 ft 266 kts 264°
2026-04-21 05:38 9.34629 100.14150 3323 ft 250 kts 264°
2026-04-21 05:38 9.34485 100.12469 3293 ft 231 kts 265°
2026-04-21 05:38 9.34572 100.10932 3267 ft 206 kts 282°
2026-04-21 05:39 9.35095 100.09652 3263 ft 196 kts 304°
2026-04-21 05:39 9.36056 100.08720 3263 ft 191 kts 335°
2026-04-21 05:39 9.37321 100.08304 3096 ft 191 kts 346°
2026-04-21 05:39 9.38605 100.07993 2937 ft 185 kts 350°
2026-04-21 05:40 9.39816 100.07831 2584 ft 166 kts 358°
2026-04-21 05:40 9.40933 100.07789 2227 ft 158 kts 359°
2026-04-21 05:40 9.42035 100.07758 1965 ft 158 kts 359°
2026-04-21 05:40 9.43129 100.07718 1864 ft 159 kts
2026-04-21 05:41 9.44256 100.07650 1828 ft 161 kts 357°
2026-04-21 05:41 9.45354 100.07532 1705 ft 161 kts 355°
2026-04-21 05:41 9.46459 100.07375 1638 ft 159 kts 352°
2026-04-21 05:41 9.47552 100.07184 1445 ft 158 kts 350°
2026-04-21 05:42 9.48637 100.06990 1253 ft 158 kts 351°
2026-04-21 05:42 9.49711 100.06812 1034 ft 158 kts 353°
2026-04-21 05:42 9.50800 100.06655 818 ft 157 kts 354°
2026-04-21 05:42 9.51893 100.06527 612 ft 160 kts 356°
2026-04-21 05:43 9.53012 100.06420 389 ft 162 kts 356°
2026-04-21 05:43 9.54139 100.06316 86 ft 161 kts 355°
2026-04-21 05:43 9.55139 100.06214 57 ft 114 kts 354°
2026-04-21 05:43 9.55560 100.06172 53 ft 18 kts 354°
2026-04-21 05:44 9.55630 100.06181 54 ft 6 kts 12°
2026-04-21 05:44 9.55685 100.06183 60 ft 4 kts 344°
2026-04-21 05:44 9.55694 100.06172 60 ft 2 kts 306°
2026-04-21 05:44 9.55695 100.06164 60 ft 1 kts 280°
2026-04-21 05:45 9.55687 100.06148 53 ft 4 kts 238°